Regional Weather Roundup
Issued by NWS Sterling, VA

Home | Current Version | Previous Version | Graphics & Text | Print | Product List | Glossary On
Versions: 1 2 3 4 5 6 7 8 9 10 11 12 13 14 15 16 17 18 19 20 21 22 23 24 25 26 27 28 29 30 31 32 33 34 35 36 37 38 39 40 41 42 43 44 45 46 47 48 49 50
000
ASUS41 KLWX 291610
RWRLWX

REGIONAL WEATHER ROUNDUP
NATIONAL WEATHER SERVICE BALTIMORE MD/WASHINGTON DC
1200 PM EDT SAT AUG 29 2015

Note: "FAIR" indicates few or no clouds below 12,000 feet
with no significant weather and/or obstructions to visibility.
 TC=TEMPERATURE CELSIUS

 * =Non NWS site. Station does not report precipitation (e.g. rain,
    snow, etc.), thunder, or fog.

DCZ001-MDZ009-015-VAZ040>042-051-053>054-291700-
WASHINGTON METRO

CITY           SKY/WX    TMP DP  RH WIND       PRES   REMARKS
WASHINGTON NAT MOSUNNY   84  60  44 SW14      30.21F
DULLES         MOSUNNY   81  62  52 SW7       30.20F
ANDREWS AFB    SUNNY     84  59  43 S10       30.20F
FT BELVOIR     SUNNY     81  60  49 S9        30.21S
QUANTICO       PTSUNNY   81  61  50 SW14      30.21F
COLLEGE PARK*  SUNNY     82  57  42 S7        30.20F
LEESBURG*      SUNNY     81  66  61 SW7       30.21F
GAITHERSBURG*  SUNNY     82  63  51 SW5       30.24F

$$

MDZ006>007-011-014-291700-
BALTIMORE METRO

CITY           SKY/WX    TMP DP  RH WIND       PRES   REMARKS
BWI AIRPORT    MOSUNNY   81  59  47 S8        30.20F
MD SCIENCE CTR   N/A     83  60  45 MISG      30.20F
MARTIN STATE   SUNNY     81  68  65 SE6       30.22F
ANNAPOLIS      SUNNY     80  60  50 S10G17    30.21F
FORT MEADE*    SUNNY     81  61  50 S7        30.23S

$$

MDZ012-015-019>023-291700-
MARYLAND EASTERN SHORE

CITY           SKY/WX    TMP DP  RH WIND       PRES   REMARKS
OCEAN CITY     SUNNY     80  60  50 VRB7      30.24S
SALISBURY      SUNNY     80  59  48 SE3       30.22F
BAY BRIDGE AP*   N/A     79  57  47 S10       30.22S
CAMBRIDGE*     SUNNY     79  63  57 CALM      30.22F
EASTON*        SUNNY     82  63  51 SW9       30.26S

$$

MDZ017>025-291700-
SOUTHERN MARYLAND

CITY           SKY/WX    TMP DP  RH WIND       PRES   REMARKS
PATUXENT RIVER PTSUNNY   81  65  58 SE9       30.22F
ST INIGOES     SUNNY     80  66  62 S7        30.22F
LEONARDTOWN*   SUNNY     81  59  47 CALM      30.24F

$$

MDZ003>005-291700-
NORTH CENTRAL MARYLAND

CITY           SKY/WX    TMP DP  RH WIND       PRES   REMARKS
FREDERICK*     MOSUNNY   81  64  57 S6        30.23F
HAGERSTOWN APT SUNNY     80  61  52 W5        30.20F
WESTMINSTER*   SUNNY     81  63  54 S6        30.21F

$$

MDZ501>502-291700-
WESTERN MARYLAND

CITY           SKY/WX    TMP DP  RH WIND       PRES   REMARKS
OAKLAND*       SUNNY     70  55  60 W7        30.30R
CUMBERLAND*    SUNNY     77  63  61 CALM      30.24F

$$

VAZ025>031-291700-
SHENANDOAH VALLEY

CITY           SKY/WX    TMP DP  RH WIND       PRES   REMARKS
WINCHESTER*    SUNNY     84  59  42 CALM      30.20F
FRONT ROYAL*   FAIR      84  63  48 SW3       30.18F
LURAY*         FAIR      82  59  44 S6        30.20F
NEW MARKET*    FAIR      83  62  48 CALM      30.19F
STAUNTON*      SUNNY     86  59  40 SW6       30.24F
WAYNESBORO*    FAIR      83  60  44 W5        30.24F

$$

WVZ021-048>050-054>055-291700-
EASTERN WEST VIRGINIA PANHANDLE

CITY           SKY/WX    TMP DP  RH WIND       PRES   REMARKS
MARTINSBURG    SUNNY     80  61  52 CALM      30.21F
PETERSBURG*    MOSUNNY   84  63  47 NE3       30.20F

$$

VAZ036>039-050-291700-
CENTRAL FOOTHILLS

CITY           SKY/WX    TMP DP  RH WIND       PRES   REMARKS
CHARLOTTESVILL PTSUNNY   79  64  60 S7        30.22F
CULPEPER*      MOSUNNY   80  63  54 SW7       30.21F
ORANGE*        MOSUNNY   84  61  45 S8        30.23S
GORDONSVILLE*  PTSUNNY   81  64  55 S6        30.21F
WARRENTON*     FAIR      84  65  53 S6        30.20F

$$

VAZ055>057-291700-
NORTH AND CENTRAL PIEDMONT

CITY           SKY/WX    TMP DP  RH WIND       PRES   REMARKS
FREDERICKSBRG* SUNNY     84  62  46 S8        30.20F
STAFFORD*      SUNNY     82  59  46 S5        30.25F

$$

NCZ024-NYZ072-PAZ021-071-VAZ022-071-291700-
OTHER REGIONAL OBSERVATIONS

CITY           SKY/WX    TMP DP  RH WIND       PRES   REMARKS
NEW YORK CITY  PTSUNNY   80  54  40 VRB5      30.23F
PHILADELPHIA   MOSUNNY   82  57  42 SW8       30.21F
PITTSBURGH     PTSUNNY   79  58  48 CALM      30.20F
ROANOKE        PTSUNNY   77  61  57 NW3       30.26F
RICHMOND       PTSUNNY   83  59  44 S6        30.23F
RALEIGH        PTSUNNY   81  60  48 E5        30.25S

$$

ANZ530>537-291700-
MARINE OBSERVATIONS

STATION/POSITION TIME  TEMP    WIND        PRES
                       AIR SEA DIR/SP/G
                 (UTC) (F)     (DEG/KT/KT) (MB)
THOMAS PT LIGHT  NOT AVBL

$$



USA.gov is the U.S. government's official web portal to all federal, state and local government web resources and services.